Abidjan, Ivory Coast

11:13 AM GMT on August 31, 2015 (GMT +0000)
Felix Houphouet-Boigny | | Change Station
CLOSE
Current Station
Airport
Location: Abidjan,
Elevation: 26 ft
Nearby Weather Stations

Elev 26 ft 5.26 °N, 3.93 °W | Updated 13 minutes ago

Mostly Cloudy
Mostly Cloudy
81 °F
Feels Like 85 °F
N
14
Wind Variable Wind from WSW

Today
High -- | Low -- °F
--% Chance of Precip.
Yesterday
High -- | Low -- °F
Precip. -- in
6:09 AM 6:22 PM
Waning Gibbous, 96% visible
Pressure 30.04 in
Visibility 6.2 miles
Clouds Scattered Clouds 1100 ft
Mostly Cloudy 4000 ft
Heat Index 85 °F
Dew Point 72 °F
Humidity 74%
Rainfall 0.00 in
Snow Depth Not available.
UV 8 out of 12
Pollen Not available.
Air Quality Not available.
Flu Activity Not available.
METAR DIAP 311100Z 24012KT 9999 SCT011 BKN040 27/22 Q1017 NOSIG
Pressure 30.04 in
Visibility 6.2 miles
Clouds Scattered Clouds 1100 ft
Mostly Cloudy 4000 ft
Heat Index 85 °F
Dew Point 72 °F
Humidity 74%
Rainfall 0.00 in
Snow Depth Not available.
UV 8 out of 12
Pollen Not available.
Air Quality Not available.
Flu Activity Not available.
METAR DIAP 311100Z 24012KT 9999 SCT011 BKN040 27/22 Q1017 NOSIG

10-Day Weather Forecast

×

Almanac

Astronomy

Aug. 31, 2015 Rise Set
Actual Time
Civil Twilight
Nautical Twilight
Astronomical Twilight
Moon
Length of Visible Light
Length of Day
Tomorrow will be .
, % of the Moon is Illuminated

Today's Extremes

Country Highs Country Lows

Community

WunderPhotos

Upload Photos

1,851,217 photos uploaded!

WunderBlogs® & News

Nearby

Air Quality

  Air Quality AQ Index Pollutant
Not available.

Snow Depth

Station Depth Elevation

Earthquake Activity

City Distance Mag. Time & Date
Minimum magnitude displayed is 2.5.

Coastal Water Temperatures

Place Temperature

Stations

Nearby Weather Stations

Station Location Temp. Windchill Dew Point Humidity Wind Precip. Elev Updated Type